GW2622 Weather Reports


Display with metric or nautical units.
time (UTC)temp
F
wind
direction
speed
MPH
gust
MPH
rain 1hr
in
rain 24hr
in
rain mn
in
humidity
%
barometer
mb
20260901075102 76 226 1.0 1.0 0.00 0.00 0.00 99 1014.3
20260901074601 76 225 1.0 2.0 0.00 0.00 0.00 99 1014.4
20260901074057 76 225 2.0 3.0 0.00 0.00 0.00 99 1014.5
20260901073554 76 237 2.0 2.0 0.00 0.00 0.00 99 1014.5
20260901073053 76 254 0.0 0.0 0.00 0.00 0.00 99 1014.5
20260901072549 76 254 0.0 0.0 0.00 0.00 0.00 99 1014.5
20260901072043 76 271 0.0 0.0 0.00 0.00 0.00 99 1014.8
20260901071538 76 271 0.0 0.0 0.00 0.00 0.00 99 1014.8
20260901071036 76 271 0.0 0.0 0.00 0.00 0.00 99 1014.6
20260901070532 76 271 0.0 0.0 0.00 0.00 0.00 99 1014.6
20260901070027 76 271 0.0 0.0 0.00 0.00 0.00 99 1014.6
20260901065521 76 272 0.0 0.0 0.00 0.00 0.00 99 1014.7
20260901065015 76 272 0.0 0.0 0.00 0.00 0.00 99 1014.9
20260901064507 76 272 0.0 0.0 0.00 0.00 0.00 99 1014.7
20260901064004 76 272 0.0 0.0 0.00 0.00 0.00 99 1015.1
20260901063500 77 272 0.0 0.0 0.00 0.00 0.00 98 1015.0
20260901062955 77 272 0.0 0.0 0.00 0.00 0.00 98 1015.0
20260901062451 77 272 0.0 0.0 0.00 0.00 0.00 98 1015.0
20260901061947 77 272 0.0 0.0 0.00 0.00 0.00 98 1015.1
20260901061443 77 272 0.0 0.0 0.00 0.00 0.00 98 1015.0
20260901060942 77 272 0.0 0.0 0.00 0.00 0.00 97 1014.9
20260901060437 78 272 0.0 0.0 0.00 0.00 0.00 97 1014.8
20260901055932 78 272 0.0 0.0 0.00 0.00 0.00 97 1015.0
20260901055429 77 272 0.0 0.0 0.00 0.00 0.00 97 1014.7
20260901054925 77 272 0.0 0.0 0.00 0.00 0.00 98 1014.8
20260901054422 77 272 0.0 0.0 0.00 0.00 0.00 98 1014.8
20260901053918 77 272 0.0 0.0 0.00 0.00 0.00 98 1014.7
20260901053413 77 272 0.0 0.0 0.00 0.00 0.00 98 1014.8
20260901052908 77 272 0.0 0.0 0.00 0.00 0.00 98 1014.8
20260901052403 78 272 0.0 0.0 0.00 0.00 0.00 98 1014.8
20260901051902 78 272 0.0 0.0 0.00 0.00 0.00 98 1014.9
20260901051357 78 272 0.0 0.0 0.00 0.00 0.00 98 1014.7
20260901050852 77 272 0.0 0.0 0.00 0.00 0.00 98 1014.6
20260901050348 78 272 0.0 0.0 0.00 0.00 0.00 98 1014.6
20260901045843 77 272 0.0 0.0 0.00 0.00 0.00 98 1014.5
20260901045342 77 272 0.0 0.0 0.00 0.00 0.00 98 1014.6
20260901044838 78 272 0.0 0.0 0.00 0.00 0.00 98 1014.6
20260901044334 78 272 0.0 0.0 0.00 0.00 0.00 98 1014.5
20260901043829 78 273 0.0 0.0 0.00 0.00 0.00 98 1014.4
20260901043325 78 273 0.0 0.0 0.00 0.00 0.00 97 1014.4
20260901042824 78 272 0.0 0.0 0.00 0.00 0.00 97 1014.5
20260901042319 78 273 0.0 0.0 0.00 0.00 0.00 96 1014.4
20260901041815 78 272 0.0 0.0 0.00 0.00 0.00 96 1014.3
20260901041310 79 272 0.0 0.0 0.00 0.00 0.00 95 1014.1
20260901040804 79 273 0.0 0.0 0.00 0.00 0.00 95 1014.1
20260901040303 79 273 0.0 0.0 0.00 0.00 0.00 97 1014.1
20260901035803 78 273 0.0 0.0 0.00 0.00 0.00 97 1014.0
20260901035305 79 273 0.0 0.0 0.00 0.00 0.00 96 1014.2
20260901034801 78 273 0.0 0.0 0.00 0.00 0.00 95 1014.0
20260901034256 79 272 0.0 0.0 0.00 0.00 0.00 95 1014.2
20260901033755 79 272 0.0 0.0 0.00 0.00 0.00 95 1014.1
20260901033255 79 273 0.0 0.0 0.00 0.00 0.00 95 1014.2
20260901032753 79 273 0.0 0.0 0.00 0.00 0.00 95 1014.2
20260901032248 79 272 0.0 0.0 0.00 0.00 0.00 94 1014.1
20260901031743 79 272 0.0 0.0 0.00 0.00 0.00 94 1014.1
20260901031239 80 272 0.0 0.0 0.00 0.00 0.00 93 1014.3
20260901030733 80 272 0.0 0.0 0.00 0.00 0.00 92 1014.3
20260901030228 81 272 0.0 0.0 0.00 0.00 0.00 91 1014.0
20260901025722 81 272 0.0 0.0 0.00 0.00 0.00 90 1014.1
20260901025217 81 272 0.0 0.0 0.00 0.00 0.00 90 1014.1
20260901024712 81 275 0.0 0.0 0.00 0.00 0.00 90 1014.2
20260901024211 82 275 0.0 0.0 0.00 0.00 0.00 90 1014.1
20260901023709 82 275 0.0 0.0 0.00 0.00 0.00 89 1014.3
20260901023204 82 275 0.0 0.0 0.00 0.00 0.00 90 1014.3
20260901022700 82 275 0.0 0.0 0.00 0.00 0.00 89 1014.2
20260901022155 82 275 0.0 0.0 0.00 0.00 0.00 89 1014.2
20260901021650 81 275 0.0 0.0 0.00 0.00 0.00 90 1014.2
20260901021145 81 275 0.0 0.0 0.00 0.00 0.00 90 1014.3
20260901020641 82 275 0.0 0.0 0.00 0.00 0.00 89 1014.2
20260901020137 82 275 0.0 0.0 0.00 0.00 0.00 89 1014.0
20260901015632 82 275 0.0 0.0 0.00 0.00 0.00 88 1013.7
20260901015131 82 275 0.0 0.0 0.00 0.00 0.00 87 1013.9
20260901014626 83 275 0.0 0.0 0.00 0.00 0.00 87 1014.0
20260901014122 82 275 0.0 0.0 0.00 0.00 0.00 88 1013.7
20260901013618 82 275 0.0 0.0 0.00 0.00 0.00 88 1013.9
20260901013114 82 275 0.0 0.0 0.00 0.00 0.00 88 1013.7
20260901012613 83 275 0.0 0.0 0.00 0.00 0.00 86 1013.5
20260901012108 84 275 0.0 0.0 0.00 0.00 0.00 85 1013.4
20260901011605 84 275 0.0 0.0 0.00 0.00 0.00 84 1013.4
20260901011103 85 275 0.0 0.0 0.00 0.00 0.00 83 1013.2
20260901010558 85 275 0.0 0.0 0.00 0.00 0.00 82 1013.1
20260901010056 86 275 0.0 0.0 0.00 0.00 0.00 82 1013.3
20260901005552 86 275 0.0 0.0 0.00 0.00 0.00 80 1013.4
20260901005047 86 275 0.0 0.0 0.00 0.00 0.00 80 1013.4
20260901004546 86 275 0.0 0.0 0.00 0.00 0.00 81 1013.3
20260901004041 86 275 0.0 0.0 0.00 0.00 0.00 82 1013.2
20260901003536 87 275 0.0 0.0 0.00 0.00 0.00 81 1013.2
20260901003034 87 275 0.0 0.0 0.00 0.00 0.00 80 1013.3
20260901002534 88 275 0.0 0.0 0.00 0.00 0.00 78 1013.1
20260901002029 88 275 0.0 0.0 0.00 0.00 0.00 78 1013.1
20260901001524 88 275 0.0 0.0 0.00 0.00 0.00 76 1013.1
20260901001019 89 275 0.0 0.0 0.00 0.00 0.00 76 1013.4
20260901000514 89 275 0.0 0.0 0.00 0.00 0.00 75 1013.1
20260901000010 89 276 0.0 0.0 0.00 0.00 0.00 75 1013.3
20260831235503 89 276 0.0 1.0 0.00 0.00 0.00 74 1013.3
20260831234959 89 272 1.0 2.0 0.00 0.00 0.00 74 1013.3
20260831234453 90 259 2.0 3.0 0.00 0.00 0.00 71 1013.1
20260831233948 91 229 2.0 5.0 0.00 0.00 0.00 71 1012.9
20260831233443 91 234 3.0 3.0 0.00 0.00 0.00 71 1013.1
20260831232939 91 221 4.0 5.0 0.00 0.00 0.00 71 1013.0
20260831232435 92 215 3.0 5.0 0.00 0.00 0.00 71 1013.1
20260831231930 92 241 3.0 6.0 0.00 0.00 0.00 70 1013.2
20260831231426 93 282 3.0 3.0 0.00 0.00 0.00 69 1013.1
20260831230922 93 269 1.0 2.0 0.00 0.00 0.00 68 1013.1
20260831230417 93 235 3.0 5.0 0.00 0.00 0.00 67 1013.1
20260831225911 93 229 3.0 3.0 0.00 0.00 0.00 66 1012.9
20260831225407 93 277 1.0 5.0 0.00 0.00 0.00 66 1013.0
20260831224902 93 206 3.0 3.0 0.00 0.00 0.00 65 1013.1
20260831224401 94 283 2.0 3.0 0.00 0.00 0.00 64 1012.9
20260831223856 94 239 3.0 5.0 0.00 0.00 0.00 63 1012.9
20260831223352 94 231 3.0 5.0 0.00 0.00 0.00 63 1013.0
20260831222849 93 228 3.0 5.0 0.00 0.00 0.00 64 1013.0
20260831222344 94 233 2.0 3.0 0.00 0.00 0.00 64 1013.0
20260831221839 95 226 4.0 6.0 0.00 0.00 0.00 63 1013.1
20260831221335 94 235 2.0 5.0 0.00 0.00 0.00 63 1013.0
20260831220829 94 217 3.0 5.0 0.00 0.00 0.00 63 1013.0
20260831220325 93 189 3.0 5.0 0.00 0.00 0.00 64 1012.9
20260831215820 94 218 3.0 6.0 0.00 0.00 0.00 64 1013.0
20260831215316 93 279 3.0 6.0 0.00 0.00 0.00 65 1013.0
20260831214812 93 239 7.0 8.0 0.00 0.00 0.00 64 1012.8
20260831214310 94 254 1.0 7.0 0.00 0.00 0.00 65 1012.9
20260831213805 94 190 6.0 9.0 0.00 0.00 0.00 63 1012.8
20260831213301 94 264 1.0 6.0 0.00 0.00 0.00 66 1012.9
20260831212756 94 202 5.0 7.0 0.00 0.00 0.00 66 1013.2
20260831212253 95 234 3.0 6.0 0.00 0.00 0.00 64 1013.0
20260831211751 94 262 1.0 5.0 0.00 0.00 0.00 63 1012.9
20260831211246 95 260 3.0 5.0 0.00 0.00 0.00 60 1012.9
20260831210740 95 290 1.0 3.0 0.00 0.00 0.00 62 1012.9
20260831210236 94 279 1.0 5.0 0.00 0.00 0.00 63 1013.0
20260831205735 94 260 3.0 3.0 0.00 0.00 0.00 59 1013.1
20260831205233 95 171 5.0 6.0 0.00 0.00 0.00 60 1013.1
20260831204732 94 236 3.0 7.0 0.00 0.00 0.00 61 1013.1
20260831204231 93 263 3.0 6.0 0.00 0.00 0.00 63 1013.2
20260831203725 93 251 5.0 6.0 0.00 0.00 0.00 64 1013.3
20260831203226 93 207 5.0 7.0 0.00 0.00 0.00 66 1013.2
20260831202724 93 229 8.0 10.0 0.00 0.00 0.00 66 1013.1
20260831202219 93 230 6.0 8.0 0.00 0.00 0.00 67 1013.1
20260831201718 93 208 5.0 9.0 0.00 0.00 0.00 69 1013.1
20260831201213 94 207 6.0 8.0 0.00 0.00 0.00 67 1013.2
20260831200708 94 222 5.0 7.0 0.00 0.00 0.00 68 1013.1
20260831200208 95 239 4.0 5.0 0.00 0.00 0.00 63 1013.1
20260831195704 95 213 3.0 3.0 0.00 0.00 0.00 65 1013.3
20260831195200 93 281 1.0 5.0 0.00 0.00 0.00 66 1013.1
20260831194654 93 245 2.0 2.0 0.00 0.00 0.00 66 1013.1
20260831194149 93 225 1.0 3.0 0.00 0.00 0.00 66 1013.1
20260831193643 93 248 3.0 6.0 0.00 0.00 0.00 65 1013.2
20260831193139 92 238 2.0 5.0 0.00 0.00 0.00 66 1013.2
20260831192634 92 256 2.0 5.0 0.00 0.00 0.00 66 1013.2
20260831192130 92 211 4.0 8.0 0.00 0.00 0.00 65 1013.1
20260831191625 92 228 4.0 6.0 0.00 0.00 0.00 68 1013.1
20260831191121 92 169 3.0 6.0 0.00 0.00 0.00 68 1013.1
20260831190616 92 199 4.0 7.0 0.00 0.00 0.00 67 1013.0
20260831190115 93 190 5.0 8.0 0.00 0.00 0.00 65 1013.2
20260831185611 94 250 2.0 3.0 0.00 0.00 0.00 62 1013.2
20260831185106 92 222 4.0 7.0 0.00 0.00 0.00 66 1013.3
20260831184605 93 210 5.0 6.0 0.00 0.00 0.00 64 1013.2
20260831184101 92 238 6.0 7.0 0.00 0.00 0.00 67 1013.2
20260831183600 92 216 4.0 6.0 0.00 0.00 0.00 65 1013.3
20260831183054 92 287 2.0 6.0 0.00 0.00 0.00 65 1013.2
20260831182549 91 212 5.0 6.0 0.00 0.00 0.00 67 1013.3
20260831182044 92 260 5.0 8.0 0.00 0.00 0.00 68 1013.1
20260831181539 92 228 4.0 6.0 0.00 0.00 0.00 65 1013.1
20260831181038 91 279 1.0 5.0 0.00 0.00 0.00 65 1013.2
20260831180534 91 248 3.0 5.0 0.00 0.00 0.00 66 1013.1
20260831180028 91 215 3.0 5.0 0.00 0.00 0.00 68 1013.0
20260831175524 92 170 2.0 6.0 0.00 0.00 0.00 67 1012.9
20260831175021 91 226 2.0 2.0 0.00 0.00 0.00 66 1013.2
20260831174520 90 246 2.0 3.0 0.00 0.00 0.00 68 1013.1
20260831174015 90 279 1.0 6.0 0.00 0.00 0.00 68 1013.3
20260831173513 90 192 2.0 5.0 0.00 0.00 0.00 67 1013.0
20260831173010 92 220 1.0 5.0 0.00 0.00 0.00 64 1013.2
20260831172504 90 155 2.0 3.0 0.00 0.00 0.00 67 1013.1
20260831171959 89 162 3.0 6.0 0.00 0.00 0.00 70 1013.3
20260831171455 89 228 3.0 6.0 0.00 0.00 0.00 70 1013.2
20260831170952 89 278 1.0 3.0 0.00 0.00 0.00 70 1013.1
20260831170448 89 222 2.0 3.0 0.00 0.00 0.00 69 1013.2
20260831165945 88 230 3.0 3.0 0.00 0.00 0.00 70 1013.0
20260831165440 88 285 1.0 3.0 0.00 0.00 0.00 69 1013.1
20260831164937 89 175 3.0 5.0 0.00 0.00 0.00 68 1013.0
20260831164432 89 234 3.0 5.0 0.00 0.00 0.00 69 1012.9
20260831163927 87 172 3.0 7.0 0.00 0.00 0.00 70 1012.8
20260831163422 86 199 4.0 5.0 0.00 0.00 0.00 70 1012.8
20260831162921 86 230 2.0 5.0 0.00 0.00 0.00 71 1012.8
20260831162416 87 170 3.0 5.0 0.00 0.00 0.00 68 1012.7
20260831161914 86 255 3.0 8.0 0.00 0.00 0.00 71 1012.8
20260831161411 86 268 3.0 3.0 0.00 0.00 0.00 69 1012.8
20260831160906 85 246 3.0 5.0 0.00 0.00 0.00 71 1012.9
20260831160401 85 211 3.0 5.0 0.00 0.00 0.00 71 1012.8
20260831155856 86 208 3.0 5.0 0.00 0.00 0.00 70 1012.8
20260831155351 86 290 3.0 3.0 0.00 0.00 0.00 70 1012.6
20260831154846 84 264 0.0 1.0 0.00 0.00 0.00 72 1012.7
20260831154343 84 282 0.0 2.0 0.00 0.00 0.00 73 1012.9
20260831153841 85 253 1.0 2.0 0.00 0.00 0.00 71 1012.7
20260831153337 85 266 1.0 2.0 0.00 0.00 0.00 69 1012.5
20260831152833 86 268 3.0 6.0 0.00 0.00 0.00 69 1013.0
20260831152329 86 272 2.0 3.0 0.00 0.00 0.00 70 1012.9
20260831151824 86 251 3.0 7.0 0.00 0.00 0.00 68 1012.8
20260831151322 86 105 2.0 3.0 0.00 0.00 0.00 69 1012.9
20260831150818 85 297 3.0 5.0 0.00 0.00 0.00 69 1013.0
20260831150314 84 210 3.0 6.0 0.00 0.00 0.00 70 1012.9
20260831145812 83 285 3.0 6.0 0.00 0.00 0.00 71 1013.0
20260831145309 83 233 4.0 7.0 0.00 0.00 0.00 71 1012.9
20260831144804 82 233 6.0 8.0 0.00 0.00 0.00 72 1012.9
20260831144301 83 206 6.0 11.0 0.00 0.00 0.00 70 1013.0
20260831143800 83 221 4.0 8.0 0.00 0.00 0.00 70 1013.0
20260831143255 82 234 2.0 7.0 0.00 0.00 0.00 71 1012.8
20260831142750 82 230 5.0 7.0 0.00 0.00 0.00 71 1012.8
20260831142246 82 219 3.0 6.0 0.00 0.00 0.00 71 1012.6
20260831141745 82 251 3.0 7.0 0.00 0.00 0.00 72 1012.7
20260831141245 82 242 1.0 3.0 0.00 0.00 0.00 73 1012.6
20260831140740 81 201 5.0 6.0 0.00 0.00 0.00 73 1012.7
20260831140234 80 229 3.0 6.0 0.00 0.00 0.00 75 1012.5
20260831135732 80 192 3.0 5.0 0.00 0.00 0.00 74 1012.6
20260831135228 79 219 5.0 8.0 0.00 0.00 0.00 75 1012.5
20260831134723 79 210 2.0 6.0 0.00 0.00 0.00 75 1012.4
20260831134220 79 240 4.0 6.0 0.00 0.00 0.00 75 1012.5
20260831133718 79 212 3.0 8.0 0.00 0.00 0.00 76 1012.6
20260831133213 79 222 3.0 6.0 0.00 0.00 0.00 75 1012.5
20260831132709 78 233 2.0 8.0 0.00 0.00 0.00 76 1012.3
20260831132203 78 227 4.0 6.0 0.00 0.00 0.00 76 1012.4
20260831131702 78 251 3.0 5.0 0.00 0.00 0.00 76 1012.3
20260831131159 78 212 3.0 5.0 0.00 0.00 0.00 76 1012.2
20260831130654 77 178 4.0 7.0 0.00 0.00 0.00 77 1012.1
20260831130149 77 259 3.0 5.0 0.00 0.00 0.00 77 1012.0
20260831125648 76 231 4.0 6.0 0.00 0.00 0.00 78 1012.0
20260831125143 77 225 5.0 7.0 0.00 0.00 0.00 78 1011.7
20260831124639 77 218 5.0 9.0 0.00 0.00 0.00 78 1011.6
20260831124135 76 222 7.0 8.0 0.00 0.00 0.00 77 1011.8
20260831123630 76 219 4.0 6.0 0.00 0.00 0.00 78 1011.5
20260831123129 76 217 9.0 13.0 0.00 0.00 0.00 77 1011.5
20260831122628 76 180 3.0 7.0 0.00 0.00 0.00 79 1011.5
20260831122125 76 203 5.0 8.0 0.00 0.00 0.00 78 1011.4
20260831121624 76 218 7.0 8.0 0.00 0.00 0.00 78 1011.6
20260831121121 76 208 7.0 13.0 0.00 0.00 0.00 78 1011.2
20260831120620 76 253 6.0 9.0 0.00 0.00 0.00 78 1011.4
20260831120115 76 221 7.0 9.0 0.00 0.00 0.00 78 1011.4
20260831115612 75 215 6.0 9.0 0.00 0.00 0.00 78 1011.2
20260831115107 75 166 5.0 8.0 0.00 0.00 0.00 79 1011.2
20260831114606 75 212 6.0 9.0 0.00 0.00 0.00 78 1011.2
20260831114101 76 193 5.0 7.0 0.00 0.00 0.00 78 1011.3
20260831113600 75 219 5.0 7.0 0.00 0.00 0.00 79 1011.3
20260831113056 75 222 4.0 7.0 0.00 0.00 0.00 79 1011.4
20260831112554 75 229 4.0 5.0 0.00 0.00 0.00 79 1011.3
20260831112050 75 187 4.0 5.0 0.00 0.00 0.00 78 1011.1
20260831111546 76 235 3.0 5.0 0.00 0.00 0.00 78 1011.2
20260831111041 75 260 1.0 6.0 0.00 0.00 0.00 78 1011.2
20260831110536 75 252 3.0 3.0 0.00 0.00 0.00 79 1011.1
20260831110026 75 250 2.0 5.0 0.00 0.00 0.00 79 1011.0
20260831105525 75 229 3.0 3.0 0.00 0.00 0.00 80 1010.9
20260831105020 75 236 2.0 3.0 0.00 0.00 0.00 79 1010.9
20260831104516 76 232 2.0 5.0 0.00 0.00 0.00 79 1010.7
20260831104013 76 210 3.0 5.0 0.00 0.00 0.00 78 1010.6
20260831103513 76 224 4.0 6.0 0.00 0.00 0.00 78 1010.7
20260831103009 76 196 3.0 6.0 0.00 0.00 0.00 78 1010.7
20260831102503 76 213 3.0 5.0 0.00 0.00 0.00 79 1010.7
20260831101958 76 206 3.0 5.0 0.00 0.00 0.00 78 1010.6
20260831101453 76 223 4.0 6.0 0.00 0.00 0.00 78 1010.6
20260831100949 76 217 4.0 5.0 0.00 0.00 0.00 78 1010.7
20260831100445 76 180 3.0 5.0 0.00 0.00 0.00 78 1010.6
20260831095940 77 196 3.0 6.0 0.00 0.00 0.00 77 1010.6
20260831095439 76 214 4.0 6.0 0.00 0.00 0.00 77 1010.7
20260831094933 76 201 4.0 6.0 0.00 0.00 0.00 78 1010.7
20260831094430 76 221 3.0 6.0 0.00 0.00 0.00 78 1010.5
20260831093925 77 256 2.0 5.0 0.00 0.00 0.00 77 1010.7
20260831093420 77 222 3.0 5.0 0.00 0.00 0.00 77 1010.6
20260831092917 77 246 2.0 3.0 0.00 0.00 0.00 76 1010.8
20260831092412 77 229 2.0 3.0 0.00 0.00 0.00 76 1011.0
20260831091907 78 259 2.0 5.0 0.00 0.00 0.00 75 1010.8
20260831091402 78 229 2.0 3.0 0.00 0.00 0.00 75 1010.9
20260831090852 78 207 3.0 5.0 0.00 0.00 0.00 75 1011.0
20260831090348 78 217 4.0 6.0 0.00 0.00 0.00 75 1010.7
20260831085844 78 195 3.0 6.0 0.00 0.00 0.00 74 1010.8
20260831085338 78 218 5.0 8.0 0.00 0.00 0.00 74 1010.6
20260831084833 79 239 4.0 7.0 0.00 0.00 0.00 74 1010.9
20260831084330 79 224 6.0 7.0 0.00 0.00 0.00 74 1010.7
20260831083826 79 213 5.0 10.0 0.00 0.00 0.00 73 1010.8
20260831083321 79 226 6.0 8.0 0.00 0.00 0.00 74 1010.7
20260831082819 79 221 7.0 9.0 0.00 0.00 0.00 73 1010.5
20260831082314 79 221 5.0 10.0 0.00 0.00 0.00 74 1010.8
20260831081810 79 206 4.0 7.0 0.00 0.00 0.00 74 1010.7
20260831081305 79 188 4.0 8.0 0.00 0.00 0.00 74 1010.8
20260831080800 79 168 7.0 8.0 0.00 0.00 0.00 74 1010.7
20260831080255 79 168 6.0 8.0 0.00 0.00 0.00 73 1010.7
20260831075752 79 216 5.0 7.0 0.00 0.00 0.00 74 1010.8